| time (UTC) | temp C | wind direction | speed KPH | gust KPH | rain 1hr cm | rain 24hr cm | rain mn cm | humidity % | barometer mb |
| 20260504035602 | 28 | 257 | 1.6 | 6.4 | 0.00 | 0.00 | 0.00 | 72 | 999.6 |
| 20260504035104 | 28 | 146 | 0.0 | 6.4 | 0.00 | 0.00 | 0.00 | 72 | 999.5 |
| 20260504034604 | 28 | 143 | 0.0 | 12.9 | 0.00 | 0.00 | 0.00 | 72 | 999.5 |
| 20260504034059 | 28 | 286 | 6.4 | 16.1 | 0.00 | 0.00 | 0.00 | 72 | 999.3 |
| 20260504033603 | 28 | 292 | 6.4 | 12.9 | 0.00 | 0.00 | 0.00 | 72 | 999.3 |
| 20260504033100 | 28 | 274 | 3.2 | 12.9 | 0.00 | 0.00 | 0.00 | 73 | 999.3 |
| 20260504032600 | 28 | 257 | 3.2 | 12.9 | 0.00 | 0.00 | 0.00 | 73 | 999.2 |
| 20260504032102 | 28 | 302 | 3.2 | 14.5 | 0.00 | 0.00 | 0.00 | 72 | 999.1 |
| 20260504032001 | 28 | 290 | 4.8 | 14.5 | 0.00 | 0.00 | 0.00 | 72 | 999.1 |
| 20260504031625 | 28 | 324 | 3.2 | 14.5 | 0.00 | 0.00 | 0.00 | 72 | 999.0 |
| 20260504031100 | 28 | 309 | 4.8 | 19.3 | 0.00 | 0.00 | 0.00 | 72 | 998.6 |
| 20260504030559 | 28 | 248 | 9.7 | 20.9 | 0.00 | 0.00 | 0.00 | 72 | 998.6 |
| 20260504030100 | 28 | 288 | 9.7 | 27.4 | 0.00 | 0.00 | 0.00 | 72 | 998.4 |
| 20260504025600 | 28 | 227 | 16.1 | 27.4 | 0.00 | 0.00 | 0.00 | 71 | 998.2 |
| 20260504025059 | 28 | 278 | 9.7 | 22.5 | 0.00 | 0.00 | 0.00 | 71 | 998.3 |
| 20260504024605 | 28 | 239 | 9.7 | 20.9 | 0.00 | 0.00 | 0.00 | 70 | 998.1 |
| 20260504024101 | 28 | 317 | 6.4 | 20.9 | 0.00 | 0.00 | 0.00 | 70 | 998.0 |
| 20260504023501 | 28 | 249 | 11.3 | 29.0 | 0.00 | 0.00 | 0.00 | 68 | 998.2 |
| 20260504023101 | 28 | 215 | 14.5 | 29.0 | 0.00 | 0.00 | 0.00 | 69 | 998.1 |
| 20260504022601 | 28 | 234 | 14.5 | 30.6 | 0.00 | 0.00 | 0.00 | 69 | 997.8 |
| 20260504022101 | 28 | 236 | 16.1 | 32.2 | 0.00 | 0.00 | 0.00 | 70 | 997.7 |
| 20260504021601 | 28 | 294 | 19.3 | 32.2 | 0.00 | 0.00 | 0.00 | 70 | 997.7 |
| 20260504021103 | 28 | 332 | 17.7 | 30.6 | 0.00 | 0.00 | 0.00 | 70 | 997.7 |
| 20260504021001 | 28 | 293 | 16.1 | 30.6 | 0.00 | 0.00 | 0.00 | 69 | 997.6 |
| 20260504020601 | 28 | 273 | 20.9 | 32.2 | 0.00 | 0.00 | 0.00 | 70 | 997.6 |
| 20260504020001 | 28 | 296 | 17.7 | 32.2 | 0.00 | 0.00 | 0.00 | 71 | 997.4 |
| 20260504015604 | 28 | 306 | 17.7 | 35.4 | 0.00 | 0.00 | 0.00 | 71 | 997.3 |
| 20260504015000 | 28 | 238 | 22.5 | 35.4 | 0.00 | 0.00 | 0.00 | 71 | 997.2 |
| 20260504014604 | 28 | 238 | 17.7 | 27.4 | 0.00 | 0.00 | 0.00 | 71 | 997.2 |
| 20260504014059 | 28 | 254 | 16.1 | 33.8 | 0.00 | 0.00 | 0.00 | 70 | 997.3 |
| 20260504013600 | 28 | 229 | 20.9 | 32.2 | 0.00 | 0.00 | 0.00 | 69 | 997.2 |
| 20260504013501 | 28 | 232 | 19.3 | 29.0 | 0.00 | 0.00 | 0.00 | 69 | 997.2 |
| 20260504013101 | 28 | 288 | 16.1 | 25.7 | 0.00 | 0.00 | 0.00 | 70 | 997.3 |
| 20260504012603 | 28 | 278 | 17.7 | 32.2 | 0.00 | 0.00 | 0.00 | 70 | 997.3 |
| 20260504012100 | 28 | 251 | 16.1 | 32.2 | 0.00 | 0.00 | 0.00 | 70 | 997.3 |
| 20260504011501 | 28 | 263 | 17.7 | 32.2 | 0.00 | 0.00 | 0.00 | 70 | 997.1 |
| 20260504011059 | 28 | 263 | 19.3 | 32.2 | 0.00 | 0.00 | 0.00 | 69 | 997.1 |
| 20260504010503 | 28 | 278 | 14.5 | 25.7 | 0.00 | 0.00 | 0.00 | 69 | 997.0 |
| 20260504010100 | 28 | 273 | 14.5 | 27.4 | 0.00 | 0.00 | 0.00 | 71 | 997.0 |
| 20260504010002 | 28 | 296 | 12.9 | 27.4 | 0.00 | 0.00 | 0.00 | 71 | 997.0 |
| 20260504005600 | 28 | 273 | 14.5 | 27.4 | 0.00 | 0.00 | 0.00 | 70 | 997.0 |
| 20260504005501 | 28 | 239 | 14.5 | 25.7 | 0.00 | 0.00 | 0.00 | 70 | 997.0 |
| 20260504005100 | 28 | 211 | 16.1 | 27.4 | 0.00 | 0.00 | 0.00 | 70 | 996.8 |
| 20260504005001 | 28 | 219 | 16.1 | 27.4 | 0.00 | 0.00 | 0.00 | 70 | 996.8 |
| 20260504004600 | 28 | 225 | 12.9 | 33.8 | 0.00 | 0.00 | 0.00 | 70 | 996.8 |
| 20260504004059 | 28 | 252 | 17.7 | 33.8 | 0.00 | 0.00 | 0.00 | 69 | 996.8 |
| 20260504003559 | 28 | 290 | 14.5 | 27.4 | 0.00 | 0.00 | 0.00 | 69 | 996.8 |
| 20260504003502 | 28 | 271 | 16.1 | 29.0 | 0.00 | 0.00 | 0.00 | 69 | 996.9 |
| 20260504003100 | 28 | 285 | 14.5 | 29.0 | 0.00 | 0.00 | 0.00 | 68 | 996.6 |
| 20260504002600 | 28 | 240 | 12.9 | 29.0 | 0.00 | 0.00 | 0.00 | 69 | 996.5 |
| 20260504002100 | 28 | 249 | 19.3 | 29.0 | 0.00 | 0.00 | 0.00 | 68 | 996.7 |
| 20260504001602 | 28 | 267 | 16.1 | 29.0 | 0.00 | 0.00 | 0.00 | 68 | 996.9 |
| 20260504001501 | 28 | 264 | 17.7 | 29.0 | 0.00 | 0.00 | 0.00 | 68 | 996.7 |
| 20260504001100 | 28 | 227 | 17.7 | 27.4 | 0.00 | 0.00 | 0.00 | 67 | 997.0 |
| 20260504001001 | 28 | 265 | 16.1 | 27.4 | 0.00 | 0.00 | 0.00 | 67 | 996.8 |
| 20260504000601 | 28 | 269 | 14.5 | 27.4 | 0.00 | 0.00 | 0.00 | 67 | 996.8 |
| 20260504000105 | 28 | 277 | 14.5 | 24.1 | 0.00 | 0.00 | 0.00 | 65 | 996.9 |
| 20260503235559 | 29 | 277 | 9.7 | 24.1 | 0.00 | 0.00 | 0.00 | 67 | 996.8 |
| 20260503235102 | 29 | 236 | 16.1 | 29.0 | 0.00 | 0.00 | 0.00 | 67 | 996.8 |
| 20260503234628 | 29 | 299 | 19.3 | 30.6 | 0.00 | 0.00 | 0.00 | 67 | 996.6 |
| 20260503234103 | 29 | 236 | 16.1 | 30.6 | 0.00 | 0.00 | 0.00 | 65 | 996.5 |
| 20260503233559 | 29 | 281 | 14.5 | 33.8 | 0.00 | 0.00 | 0.00 | 65 | 996.4 |
| 20260503233059 | 29 | 281 | 16.1 | 33.8 | 0.00 | 0.00 | 0.00 | 66 | 996.4 |
| 20260503232559 | 29 | 232 | 16.1 | 35.4 | 0.00 | 0.00 | 0.00 | 66 | 996.5 |
| 20260503232059 | 29 | 244 | 16.1 | 30.6 | 0.00 | 0.00 | 0.00 | 67 | 996.5 |
| 20260503231559 | 29 | 105 | 16.1 | 32.2 | 0.00 | 0.00 | 0.00 | 66 | 996.5 |
| 20260503231100 | 29 | 264 | 19.3 | 32.2 | 0.00 | 0.00 | 0.00 | 66 | 996.5 |
| 20260503230602 | 29 | 285 | 16.1 | 30.6 | 0.00 | 0.00 | 0.00 | 67 | 996.5 |
| 20260503230059 | 30 | 262 | 17.7 | 30.6 | 0.00 | 0.00 | 0.00 | 66 | 996.4 |
| 20260503225559 | 30 | 246 | 17.7 | 29.0 | 0.00 | 0.00 | 0.00 | 64 | 996.4 |
| 20260503225059 | 30 | 273 | 14.5 | 27.4 | 0.00 | 0.00 | 0.00 | 64 | 996.6 |
| 20260503224659 | 30 | 271 | 12.9 | 27.4 | 0.00 | 0.00 | 0.00 | 62 | 996.6 |
| 20260503224102 | 30 | 251 | 11.3 | 29.0 | 0.00 | 0.00 | 0.00 | 62 | 996.6 |
| 20260503223559 | 30 | 286 | 16.1 | 29.0 | 0.00 | 0.00 | 0.00 | 62 | 996.5 |
| 20260503223059 | 30 | 248 | 17.7 | 29.0 | 0.00 | 0.00 | 0.00 | 58 | 996.6 |
| 20260503222600 | 30 | 261 | 14.5 | 29.0 | 0.00 | 0.00 | 0.00 | 64 | 996.7 |
| 20260503222059 | 30 | 209 | 16.1 | 29.0 | 0.00 | 0.00 | 0.00 | 64 | 996.6 |
| 20260503221601 | 30 | 224 | 17.7 | 29.0 | 0.00 | 0.00 | 0.00 | 62 | 996.7 |
| 20260503221059 | 30 | 259 | 17.7 | 29.0 | 0.00 | 0.00 | 0.00 | 62 | 996.8 |
| 20260503220559 | 30 | 257 | 16.1 | 30.6 | 0.00 | 0.00 | 0.00 | 63 | 996.8 |
| 20260503220059 | 30 | 238 | 14.5 | 30.6 | 0.00 | 0.00 | 0.00 | 62 | 996.9 |
| 20260503220002 | 30 | 286 | 16.1 | 30.6 | 0.00 | 0.00 | 0.00 | 62 | 996.9 |
| 20260503215600 | 30 | 286 | 12.9 | 29.0 | 0.00 | 0.00 | 0.00 | 65 | 996.9 |
| 20260503215100 | 30 | 261 | 16.1 | 29.0 | 0.00 | 0.00 | 0.00 | 64 | 996.8 |
| 20260503215001 | 30 | 272 | 12.9 | 29.0 | 0.00 | 0.00 | 0.00 | 64 | 996.8 |
| 20260503214600 | 30 | 263 | 14.5 | 29.0 | 0.00 | 0.00 | 0.00 | 64 | 996.9 |
| 20260503214502 | 30 | 274 | 12.9 | 29.0 | 0.00 | 0.00 | 0.00 | 65 | 997.0 |
| 20260503214100 | 30 | 246 | 17.7 | 29.0 | 0.00 | 0.00 | 0.00 | 64 | 996.9 |
| 20260503214002 | 30 | 280 | 17.7 | 33.8 | 0.00 | 0.00 | 0.00 | 63 | 997.0 |
| 20260503213600 | 30 | 253 | 17.7 | 33.8 | 0.00 | 0.00 | 0.00 | 65 | 997.0 |
| 20260503213002 | 30 | 272 | 17.7 | 27.4 | 0.00 | 0.00 | 0.00 | 63 | 997.1 |
| 20260503212502 | 30 | 239 | 16.1 | 27.4 | 0.00 | 0.00 | 0.00 | 63 | 997.2 |
| 20260503212100 | 30 | 269 | 14.5 | 27.4 | 0.00 | 0.00 | 0.00 | 63 | 997.1 |
| 20260503212001 | 30 | 281 | 16.1 | 27.4 | 0.00 | 0.00 | 0.00 | 64 | 997.1 |
| 20260503211500 | 30 | 232 | 12.9 | 24.1 | 0.00 | 0.00 | 0.00 | 66 | 997.2 |
| 20260503211100 | 30 | 290 | 11.3 | 27.4 | 0.00 | 0.00 | 0.00 | 66 | 997.2 |
| 20260503210600 | 30 | 244 | 17.7 | 27.4 | 0.00 | 0.00 | 0.00 | 67 | 997.4 |
| 20260503210104 | 30 | 271 | 14.5 | 29.0 | 0.00 | 0.00 | 0.00 | 67 | 997.3 |
| 20260503210002 | 30 | 355 | 17.7 | 29.0 | 0.00 | 0.00 | 0.00 | 67 | 997.4 |
| 20260503205600 | 30 | 245 | 16.1 | 29.0 | 0.00 | 0.00 | 0.00 | 67 | 997.3 |
| 20260503205100 | 30 | 289 | 12.9 | 32.2 | 0.00 | 0.00 | 0.00 | 68 | 997.6 |
| 20260503204600 | 30 | 256 | 14.5 | 32.2 | 0.00 | 0.00 | 0.00 | 68 | 997.6 |
| 20260503204058 | 30 | 282 | 14.5 | 27.4 | 0.00 | 0.00 | 0.00 | 65 | 997.7 |
| 20260503203559 | 30 | 324 | 14.5 | 29.0 | 0.00 | 0.00 | 0.00 | 66 | 997.7 |
| 20260503203100 | 30 | 259 | 12.9 | 29.0 | 0.00 | 0.00 | 0.00 | 65 | 997.7 |
| 20260503202559 | 30 | 252 | 12.9 | 29.0 | 0.00 | 0.00 | 0.00 | 64 | 997.8 |
| 20260503202100 | 30 | 267 | 14.5 | 20.9 | 0.00 | 0.00 | 0.00 | 66 | 997.8 |
| 20260503201600 | 30 | 309 | 11.3 | 24.1 | 0.00 | 0.00 | 0.00 | 66 | 997.8 |
| 20260503201103 | 30 | 240 | 14.5 | 29.0 | 0.00 | 0.00 | 0.00 | 66 | 997.9 |
| 20260503200558 | 30 | 282 | 14.5 | 29.0 | 0.00 | 0.00 | 0.00 | 66 | 998.0 |
| 20260503200059 | 30 | 264 | 14.5 | 27.4 | 0.00 | 0.00 | 0.00 | 66 | 998.1 |
| 20260503195603 | 31 | 240 | 11.3 | 25.7 | 0.00 | 0.00 | 0.00 | 64 | 998.0 |
| 20260503195100 | 30 | 300 | 12.9 | 25.7 | 0.00 | 0.00 | 0.00 | 66 | 998.1 |
| 20260503194603 | 30 | 298 | 11.3 | 24.1 | 0.00 | 0.00 | 0.00 | 67 | 998.1 |
| 20260503194059 | 30 | 261 | 12.9 | 24.1 | 0.00 | 0.00 | 0.00 | 63 | 998.2 |
| 20260503193559 | 30 | 259 | 11.3 | 24.1 | 0.00 | 0.00 | 0.00 | 66 | 998.3 |
| 20260503193059 | 30 | 238 | 9.7 | 24.1 | 0.00 | 0.00 | 0.00 | 67 | 998.5 |
| 20260503192559 | 30 | 244 | 11.3 | 25.7 | 0.00 | 0.00 | 0.00 | 67 | 998.5 |
| 20260503192059 | 30 | 250 | 11.3 | 24.1 | 0.00 | 0.00 | 0.00 | 67 | 998.6 |
| 20260503191603 | 30 | 242 | 14.5 | 24.1 | 0.00 | 0.00 | 0.00 | 66 | 998.7 |
| 20260503191103 | 30 | 251 | 12.9 | 24.1 | 0.00 | 0.00 | 0.00 | 67 | 998.5 |
| 20260503190600 | 30 | 215 | 11.3 | 25.7 | 0.00 | 0.00 | 0.00 | 67 | 998.7 |
| 20260503185559 | 30 | 295 | 14.5 | 25.7 | 0.00 | 0.00 | 0.00 | 65 | 998.7 |
| 20260503185103 | 30 | 245 | 12.9 | 25.7 | 0.00 | 0.00 | 0.00 | 63 | 998.9 |
| 20260503184600 | 30 | 202 | 9.7 | 27.4 | 0.00 | 0.00 | 0.00 | 62 | 998.9 |
| 20260503184100 | 30 | 248 | 14.5 | 27.4 | 0.00 | 0.00 | 0.00 | 63 | 999.1 |
| 20260503183559 | 30 | 244 | 11.3 | 24.1 | 0.00 | 0.00 | 0.00 | 58 | 999.2 |
| 20260503183100 | 30 | 209 | 8.0 | 25.7 | 0.00 | 0.00 | 0.00 | 59 | 999.2 |
| 20260503182559 | 30 | 208 | 12.9 | 25.7 | 0.00 | 0.00 | 0.00 | 62 | 999.2 |
| 20260503182059 | 30 | 247 | 12.9 | 24.1 | 0.00 | 0.00 | 0.00 | 61 | 999.3 |
| 20260503181600 | 30 | 207 | 14.5 | 25.7 | 0.00 | 0.00 | 0.00 | 60 | 999.5 |
| 20260503181059 | 30 | 279 | 11.3 | 25.7 | 0.00 | 0.00 | 0.00 | 63 | 999.6 |
| 20260503180559 | 30 | 269 | 11.3 | 22.5 | 0.00 | 0.00 | 0.00 | 58 | 999.6 |
| 20260503180107 | 30 | 292 | 16.1 | 22.5 | 0.00 | 0.00 | 0.00 | 59 | 999.5 |
| 20260503175558 | 30 | 242 | 14.5 | 22.5 | 0.00 | 0.00 | 0.00 | 57 | 999.6 |
| 20260503175059 | 30 | 286 | 11.3 | 19.3 | 0.00 | 0.00 | 0.00 | 60 | 999.8 |
| 20260503174601 | 30 | 267 | 14.5 | 19.3 | 0.00 | 0.00 | 0.00 | 58 | 999.9 |
| 20260503174101 | 30 | 292 | 9.7 | 19.3 | 0.00 | 0.00 | 0.00 | 59 | 1000.0 |
| 20260503173559 | 30 | 221 | 9.7 | 19.3 | 0.00 | 0.00 | 0.00 | 54 | 1000.1 |
| 20260503173111 | 30 | 261 | 9.7 | 17.7 | 0.00 | 0.00 | 0.00 | 55 | 1000.1 |
| 20260503172602 | 30 | 208 | 8.0 | 19.3 | 0.00 | 0.00 | 0.00 | 57 | 1000.2 |
| 20260503172059 | 30 | 273 | 9.7 | 16.1 | 0.00 | 0.00 | 0.00 | 57 | 1000.2 |
| 20260503171600 | 30 | 327 | 6.4 | 17.7 | 0.00 | 0.00 | 0.00 | 58 | 1000.3 |
| 20260503171100 | 31 | 195 | 9.7 | 19.3 | 0.00 | 0.00 | 0.00 | 56 | 1000.4 |
| 20260503170600 | 31 | 224 | 9.7 | 17.7 | 0.00 | 0.00 | 0.00 | 55 | 1000.5 |
| 20260503150558 | 30 | 271 | 0.0 | 6.4 | 0.00 | 0.00 | 0.00 | 51 | 1000.1 |
| 20260503140110 | 27 | 44 | 0.0 | 4.8 | 0.00 | 0.00 | 0.00 | 55 | 999.2 |
| 20260503131058 | 25 | 34 | 0.0 | 3.2 | 0.00 | 0.00 | 0.00 | 68 | 998.6 |
| 20260503130601 | 25 | 89 | 0.0 | 0.0 | 0.00 | 0.00 | 0.00 | 70 | 998.5 |
| 20260503110558 | 25 | 329 | 0.0 | 0.0 | 0.00 | 0.00 | 0.00 | 69 | 997.4 |
| 20260503110110 | 25 | 329 | 0.0 | 0.0 | 0.00 | 0.00 | 0.00 | 69 | 997.5 |
| 20260503090105 | 25 | 270 | 0.0 | 4.8 | 0.00 | 0.00 | 0.00 | 73 | 998.4 |
| 20260503081559 | 25 | 272 | 0.0 | 3.2 | 0.00 | 0.00 | 0.00 | 75 | 998.9 |
| 20260503081059 | 25 | 272 | 1.6 | 4.8 | 0.00 | 0.00 | 0.00 | 75 | 998.9 |
| 20260503080559 | 25 | 291 | 1.6 | 4.8 | 0.00 | 0.00 | 0.00 | 75 | 999.0 |
| 20260503072601 | 25 | 288 | 1.6 | 4.8 | 0.00 | 0.00 | 0.00 | 75 | 999.1 |
| 20260503072058 | 25 | 290 | 1.6 | 4.8 | 0.00 | 0.00 | 0.00 | 76 | 999.2 |
| 20260503071614 | 25 | 345 | 0.0 | 4.8 | 0.00 | 0.00 | 0.00 | 76 | 999.1 |
| 20260503071058 | 25 | 279 | 1.6 | 4.8 | 0.00 | 0.00 | 0.00 | 76 | 999.1 |
| 20260503070601 | 25 | 278 | 1.6 | 4.8 | 0.00 | 0.00 | 0.00 | 76 | 999.0 |
| 20260503060128 | 25 | 284 | 0.0 | 3.2 | 0.00 | 0.00 | 0.00 | 77 | 999.3 |
| 20260503055001 | 25 | 271 | 1.6 | 3.2 | 0.00 | 0.00 | 0.00 | 77 | 999.3 |
| 20260503054502 | 25 | 292 | 1.6 | 4.8 | 0.00 | 0.00 | 0.00 | 77 | 999.3 |
| 20260503054001 | 25 | 306 | 1.6 | 4.8 | 0.00 | 0.00 | 0.00 | 77 | 999.2 |
| 20260503053501 | 25 | 305 | 1.6 | 4.8 | 0.00 | 0.00 | 0.00 | 77 | 999.3 |
| 20260503053002 | 25 | 282 | 1.6 | 4.8 | 0.00 | 0.00 | 0.00 | 77 | 999.3 |
| 20260503052501 | 25 | 271 | 0.0 | 6.4 | 0.00 | 0.00 | 0.00 | 77 | 999.3 |
| 20260503052003 | 25 | 293 | 1.6 | 6.4 | 0.00 | 0.00 | 0.00 | 78 | 999.2 |
| 20260503051502 | 25 | 277 | 3.2 | 6.4 | 0.00 | 0.00 | 0.00 | 78 | 999.1 |
| 20260503051001 | 25 | 243 | 1.6 | 4.8 | 0.00 | 0.00 | 0.00 | 77 | 999.2 |
| 20260503050504 | 25 | 298 | 0.0 | 3.2 | 0.00 | 0.00 | 0.00 | 77 | 999.1 |
| 20260503050001 | 26 | 273 | 0.0 | 3.2 | 0.00 | 0.00 | 0.00 | 78 | 999.0 |
| 20260503045601 | 26 | 283 | 0.0 | 3.2 | 0.00 | 0.00 | 0.00 | 77 | 998.8 |
| 20260503045503 | 26 | 296 | 0.0 | 3.2 | 0.00 | 0.00 | 0.00 | 77 | 998.8 |
| 20260503045101 | 26 | 300 | 0.0 | 4.8 | 0.00 | 0.00 | 0.00 | 77 | 998.7 |
| 20260503044600 | 26 | 291 | 0.0 | 4.8 | 0.00 | 0.00 | 0.00 | 77 | 998.5 |
| 20260503044100 | 26 | 295 | 0.0 | 4.8 | 0.00 | 0.00 | 0.00 | 77 | 998.6 |
| 20260503043600 | 26 | 307 | 0.0 | 4.8 | 0.00 | 0.00 | 0.00 | 77 | 998.5 |
| 20260503043105 | 26 | 274 | 3.2 | 4.8 | 0.00 | 0.00 | 0.00 | 77 | 998.6 |
| 20260503042602 | 26 | 291 | 3.2 | 4.8 | 0.00 | 0.00 | 0.00 | 77 | 998.5 |
| 20260503042100 | 26 | 276 | 1.6 | 4.8 | 0.00 | 0.00 | 0.00 | 77 | 998.4 |
| 20260503041600 | 26 | 280 | 0.0 | 4.8 | 0.00 | 0.00 | 0.00 | 77 | 998.4 |
| 20260503041059 | 26 | 252 | 0.0 | 4.8 | 0.00 | 0.00 | 0.00 | 77 | 998.3 |
| 20260503040600 | 26 | 270 | 0.0 | 3.2 | 0.00 | 0.00 | 0.00 | 77 | 998.1 |
| 20260503040002 | 26 | 292 | 0.0 | 0.0 | 0.00 | 0.00 | 0.00 | 77 | 998.2 |